VTK601 USSS-UZTT

Flight info

Callsign VTK601
Flight time 2h 28m
Altitude 39000
Route LBN DCT KST DCT ARK DCT DZG DCT TRK DCT TKT
Aircraft A388/J-SADE2E3FGHIJ3J4J5M1RWXY/LB1D1

Departure

Time 2026-04-28 05:32
Airport Koltsovo Airport (USSS)

Arrival

Time 2026-04-28 08:00
Airport Tashkent International Airport (UZTT)
Time Latitude Longitude Altitude Speed Heading
2026-04-28 05:16 56.74800 60.78986 779 ft 0 kts 180°
2026-04-28 05:25 56.74820 60.78986 779 ft 4 kts 180°
2026-04-28 05:25 56.74845 60.78995 779 ft 4 kts 207°
2026-04-28 05:25 56.74856 60.79036 779 ft 4 kts 268°
2026-04-28 05:26 56.74855 60.79047 779 ft 0 kts 274°
2026-04-28 05:28 56.74857 60.78983 779 ft 10 kts 270°
2026-04-28 05:28 56.74856 60.78819 779 ft 16 kts 269°
2026-04-28 05:28 56.74854 60.78598 778 ft 19 kts 269°
2026-04-28 05:28 56.74853 60.78354 778 ft 20 kts 269°
2026-04-28 05:29 56.74814 60.78158 777 ft 14 kts 194°
2026-04-28 05:29 56.74712 60.78148 777 ft 15 kts 180°
2026-04-28 05:29 56.74612 60.78149 777 ft 14 kts 180°
2026-04-28 05:29 56.74511 60.78148 777 ft 15 kts 180°
2026-04-28 05:30 56.74414 60.78128 777 ft 14 kts 205°
2026-04-28 05:30 56.74323 60.78040 777 ft 15 kts 208°
2026-04-28 05:30 56.74244 60.77985 777 ft 9 kts 154°
2026-04-28 05:30 56.74226 60.78060 777 ft 8 kts 88°
2026-04-28 05:31 56.74225 60.78089 777 ft 9 kts 92°
2026-04-28 05:31 56.74197 60.78784 778 ft 97 kts 95°
2026-04-28 05:31 56.74133 60.80412 780 ft 153 kts 95°
2026-04-28 05:31 56.74088 60.82410 1272 ft 156 kts 98°
2026-04-28 05:32 56.74026 60.84411 1833 ft 164 kts 98°
2026-04-28 05:32 56.73994 60.86556 2348 ft 173 kts 96°
2026-04-28 05:32 56.73982 60.88832 2718 ft 188 kts 96°
2026-04-28 05:32 56.73968 60.91336 2991 ft 207 kts 96°
2026-04-28 05:33 56.73934 60.94070 3200 ft 225 kts 96°
2026-04-28 05:33 56.73909 60.97030 3326 ft 243 kts 96°
2026-04-28 05:33 56.73877 61.00275 3662 ft 267 kts 97°
2026-04-28 05:33 56.73498 61.03588 4215 ft 267 kts 124°
2026-04-28 05:34 56.72350 61.06046 5227 ft 248 kts 154°
2026-04-28 05:34 56.70818 61.07143 6381 ft 231 kts 175°
2026-04-28 05:34 56.69225 61.07400 7303 ft 230 kts 184°
2026-04-28 05:34 56.67623 61.07281 8190 ft 232 kts 188°
2026-04-28 05:35 56.66013 61.06981 9104 ft 233 kts 189°
2026-04-28 05:35 56.64389 61.06659 10000 ft 237 kts 189°
2026-04-28 05:35 56.62706 61.06340 10493 ft 253 kts 189°
2026-04-28 05:35 56.60869 61.06002 10785 ft 277 kts 188°
2026-04-28 05:36 56.58893 61.05654 11229 ft 289 kts 188°
2026-04-28 05:36 56.56875 61.05318 11873 ft 294 kts 187°
2026-04-28 05:36 56.54818 61.04978 12600 ft 298 kts 188°
2026-04-28 05:36 56.52730 61.04613 12976 ft 303 kts 188°
2026-04-28 05:37 56.50637 61.04233 12990 ft 300 kts 188°
2026-04-28 05:37 56.48569 61.03899 12987 ft 299 kts 187°
2026-04-28 05:37 56.46501 61.03560 12992 ft 298 kts 187°
2026-04-28 05:37 56.44432 61.03236 12991 ft 300 kts 188°
2026-04-28 05:38 56.42343 61.02867 12986 ft 302 kts 188°
2026-04-28 05:38 56.40276 61.02528 12985 ft 303 kts 184°
2026-04-28 05:38 56.38172 61.03020 12990 ft 310 kts 168°
2026-04-28 05:38 56.36198 61.04701 12995 ft 321 kts 152°
2026-04-28 05:39 56.34456 61.07298 12995 ft 326 kts 146°
2026-04-28 05:39 56.32731 61.09929 12992 ft 324 kts 147°
2026-04-28 05:39 56.31003 61.12537 12991 ft 325 kts 147°
2026-04-28 05:39 56.29270 61.15153 12999 ft 325 kts 147°
2026-04-28 05:40 56.27531 61.17766 12998 ft 326 kts 147°
2026-04-28 05:40 56.25792 61.20359 12998 ft 325 kts 148°
2026-04-28 05:40 56.24047 61.22959 12997 ft 326 kts 148°
2026-04-28 05:40 56.22307 61.25563 12997 ft 325 kts 147°
2026-04-28 05:41 56.20566 61.28162 12987 ft 327 kts 147°
2026-04-28 05:41 56.18802 61.30788 13000 ft 330 kts 147°
2026-04-28 05:41 56.17039 61.33414 13005 ft 330 kts 147°
2026-04-28 05:41 56.15279 61.36037 13013 ft 329 kts 147°
2026-04-28 05:42 56.13507 61.38655 13193 ft 332 kts 147°
2026-04-28 05:42 56.11718 61.41295 13839 ft 334 kts 147°
2026-04-28 05:42 56.09920 61.43944 14511 ft 336 kts 147°
2026-04-28 05:42 56.08119 61.46620 15221 ft 337 kts 147°
2026-04-28 05:43 56.06307 61.49319 15887 ft 338 kts 148°
2026-04-28 05:43 56.04469 61.52016 16543 ft 343 kts 148°
2026-04-28 05:43 56.02615 61.54714 17212 ft 345 kts 148°
2026-04-28 05:43 56.00755 61.57448 17842 ft 348 kts 148°
2026-04-28 05:44 55.98873 61.60217 18410 ft 351 kts 148°
2026-04-28 05:44 55.96981 61.63003 18940 ft 354 kts 149°
2026-04-28 05:44 55.95076 61.65801 19455 ft 357 kts 149°
2026-04-28 05:44 55.93150 61.68617 19968 ft 358 kts 150°
2026-04-28 05:45 55.91036 61.70822 20453 ft 348 kts 165°
2026-04-28 05:45 55.88729 61.71897 20991 ft 340 kts 179°
2026-04-28 05:45 55.86384 61.71864 21508 ft 336 kts 192°
2026-04-28 05:45 55.84094 61.71018 22019 ft 337 kts 195°
2026-04-28 05:46 55.81793 61.70158 22550 ft 340 kts 194°
2026-04-28 05:46 55.79465 61.69314 23060 ft 342 kts 194°
2026-04-28 05:46 55.77127 61.68470 23552 ft 345 kts 195°
2026-04-28 05:46 55.74767 61.67618 24007 ft 347 kts 195°
2026-04-28 05:47 55.72396 61.66763 24435 ft 349 kts 195°
2026-04-28 05:47 55.69999 61.65895 24732 ft 355 kts 195°
2026-04-28 05:47 55.67608 61.65025 25166 ft 356 kts 195°
2026-04-28 05:47 55.65140 61.64127 25632 ft 358 kts 195°
2026-04-28 05:48 55.62723 61.63250 26095 ft 360 kts 195°
2026-04-28 05:48 55.60226 61.62345 26567 ft 363 kts 195°
2026-04-28 05:48 55.57747 61.61452 27060 ft 366 kts 195°
2026-04-28 05:48 55.55280 61.60564 27555 ft 368 kts 195°
2026-04-28 05:49 55.52757 61.59649 28078 ft 371 kts 195°
2026-04-28 05:49 55.50226 61.58737 28742 ft 370 kts 195°
2026-04-28 05:49 55.47695 61.57833 29296 ft 373 kts 195°
2026-04-28 05:49 55.45140 61.56920 29774 ft 377 kts 195°
2026-04-28 05:50 55.42559 61.55997 30278 ft 380 kts 195°
2026-04-28 05:50 55.39956 61.55066 30745 ft 383 kts 195°
2026-04-28 05:50 55.37328 61.54129 31005 ft 390 kts 195°
2026-04-28 05:50 55.34632 61.53324 31379 ft 397 kts 188°
2026-04-28 05:51 55.31848 61.53342 31857 ft 405 kts 179°
2026-04-28 05:51 55.29013 61.54299 32281 ft 416 kts 169°
2026-04-28 05:51 55.26288 61.56215 32689 ft 429 kts 159°
2026-04-28 05:51 55.23722 61.58840 33116 ft 435 kts 156°
2026-04-28 05:52 55.21108 61.61538 33571 ft 437 kts 156°
2026-04-28 05:52 55.18473 61.64229 34011 ft 440 kts 156°
2026-04-28 05:52 55.15818 61.66928 34362 ft 443 kts 156°
2026-04-28 05:52 55.13104 61.69679 34638 ft 447 kts 156°
2026-04-28 05:53 55.10393 61.72425 34911 ft 452 kts 156°
2026-04-28 05:53 55.07703 61.75149 35349 ft 453 kts 156°
2026-04-28 05:53 55.04940 61.77942 35801 ft 454 kts 156°
2026-04-28 05:53 55.02203 61.80701 36259 ft 455 kts 156°
2026-04-28 05:54 54.99498 61.83420 36700 ft 455 kts 156°
2026-04-28 05:54 54.96717 61.86218 37148 ft 456 kts 156°
2026-04-28 05:54 54.93964 61.88981 37579 ft 457 kts 156°
2026-04-28 05:54 54.91207 61.91742 38003 ft 458 kts 155°
2026-04-28 05:55 54.88441 61.94509 38348 ft 459 kts 155°
2026-04-28 05:55 54.85666 61.97281 38705 ft 461 kts 155°
2026-04-28 05:55 54.82882 62.00055 39031 ft 462 kts 155°
2026-04-28 05:55 54.80067 62.02850 39078 ft 470 kts 155°
2026-04-28 05:56 54.74466 62.08418 39088 ft 463 kts 155°
2026-04-28 05:56 54.68854 62.13969 39085 ft 465 kts 155°
2026-04-28 05:57 54.63245 62.19501 39092 ft 469 kts 155°
2026-04-28 05:57 54.57554 62.25097 39095 ft 467 kts 155°
2026-04-28 05:58 54.52863 62.29697 39089 ft 466 kts 155°
2026-04-28 05:58 54.47238 62.35196 39087 ft 465 kts 155°
2026-04-28 05:59 54.41619 62.40664 39067 ft 464 kts 155°
2026-04-28 05:59 54.35092 62.47008 39067 ft 464 kts 155°
2026-04-28 06:00 54.30382 62.51569 39080 ft 464 kts 155°
2026-04-28 06:00 54.24748 62.57001 39097 ft 465 kts 155°
2026-04-28 06:01 54.19106 62.62430 39082 ft 465 kts 155°
2026-04-28 06:01 54.13462 62.67846 39082 ft 466 kts 155°
2026-04-28 06:02 54.07803 62.73251 39096 ft 467 kts 155°
2026-04-28 06:02 54.02125 62.78667 39110 ft 468 kts 155°
2026-04-28 06:03 53.96431 62.84077 39113 ft 470 kts 155°
2026-04-28 06:03 53.90712 62.89494 39129 ft 472 kts 155°
2026-04-28 06:04 53.84963 62.94926 39146 ft 474 kts 155°
2026-04-28 06:04 53.79191 63.00351 39164 ft 475 kts 155°
2026-04-28 06:05 53.73404 63.05776 39165 ft 475 kts 155°
2026-04-28 06:05 53.67621 63.11187 39167 ft 476 kts 155°
2026-04-28 06:06 53.61828 63.16589 39172 ft 476 kts 155°
2026-04-28 06:06 53.56073 63.21939 39177 ft 475 kts 155°
2026-04-28 06:07 53.50245 63.27335 39174 ft 475 kts 155°
2026-04-28 06:07 53.44451 63.32681 39176 ft 475 kts 155°
2026-04-28 06:08 53.38664 63.38012 39184 ft 474 kts 155°
2026-04-28 06:08 53.32882 63.43319 39181 ft 474 kts 156°
2026-04-28 06:09 53.27134 63.48571 39172 ft 474 kts 155°
2026-04-28 06:09 53.21353 63.53846 39174 ft 474 kts 155°
2026-04-28 06:10 53.15818 63.59908 39175 ft 480 kts 146°
2026-04-28 06:10 53.10576 63.66802 39178 ft 480 kts 146°
2026-04-28 06:11 53.05316 63.73683 39170 ft 481 kts 146°
2026-04-28 06:11 53.00038 63.80536 39176 ft 482 kts 146°
2026-04-28 06:12 52.94739 63.87386 39194 ft 483 kts 146°
2026-04-28 06:12 52.89435 63.94214 39200 ft 483 kts 146°
2026-04-28 06:13 52.84116 64.01042 39195 ft 484 kts 146°
2026-04-28 06:13 52.78791 64.07859 39205 ft 484 kts 146°
2026-04-28 06:14 52.73461 64.14665 39208 ft 484 kts 146°
2026-04-28 06:14 52.68125 64.21448 39218 ft 484 kts 146°
2026-04-28 06:15 52.62786 64.28217 39208 ft 484 kts 146°
2026-04-28 06:15 52.57433 64.34973 39213 ft 485 kts 146°
2026-04-28 06:16 52.52073 64.41722 39224 ft 486 kts 146°
2026-04-28 06:16 52.46707 64.48460 39226 ft 486 kts 146°
2026-04-28 06:17 52.41333 64.55189 39216 ft 486 kts 146°
2026-04-28 06:18 52.33269 64.65245 39228 ft 486 kts 146°
2026-04-28 06:18 52.27881 64.71938 39225 ft 486 kts 146°
2026-04-28 06:19 52.22496 64.78606 39218 ft 486 kts 147°
2026-04-28 06:19 52.17093 64.85270 39223 ft 487 kts 147°
2026-04-28 06:20 52.11687 64.91931 39236 ft 487 kts 147°
2026-04-28 06:20 52.06309 64.98524 39238 ft 487 kts 147°
2026-04-28 06:21 52.00855 65.05189 39235 ft 488 kts 147°
2026-04-28 06:21 51.95421 65.11809 39235 ft 488 kts 147°
2026-04-28 06:22 51.90022 65.18372 39239 ft 489 kts 147°
2026-04-28 06:22 51.84576 65.24966 39224 ft 488 kts 147°
2026-04-28 06:23 51.79126 65.31550 39238 ft 490 kts 147°
2026-04-28 06:23 51.73666 65.38124 39243 ft 490 kts 147°
2026-04-28 06:24 51.68200 65.44688 39243 ft 490 kts 147°
2026-04-28 06:24 51.62726 65.51234 39237 ft 490 kts 147°
2026-04-28 06:25 51.57236 65.57778 39242 ft 492 kts 147°
2026-04-28 06:25 51.51738 65.64314 39252 ft 492 kts 147°
2026-04-28 06:26 51.46232 65.70848 39259 ft 492 kts 147°
2026-04-28 06:26 51.40722 65.77364 39265 ft 492 kts 147°
2026-04-28 06:27 51.35199 65.83866 39258 ft 493 kts 147°
2026-04-28 06:27 51.29675 65.90344 39262 ft 493 kts 147°
2026-04-28 06:28 51.24153 65.96817 39251 ft 492 kts 147°
2026-04-28 06:28 51.18627 66.03274 39248 ft 492 kts 147°
2026-04-28 06:29 51.13092 66.09713 39245 ft 493 kts 147°
2026-04-28 06:29 51.07548 66.16146 39247 ft 493 kts 147°
2026-04-28 06:30 51.02006 66.22562 39241 ft 494 kts 147°
2026-04-28 06:30 50.96437 66.28982 39250 ft 495 kts 147°
2026-04-28 06:31 50.90857 66.35398 39257 ft 496 kts 147°
2026-04-28 06:31 50.85260 66.41809 39264 ft 497 kts 147°
2026-04-28 06:32 50.79650 66.48221 39253 ft 498 kts 147°
2026-04-28 06:32 50.74030 66.54620 39266 ft 499 kts 147°
2026-04-28 06:33 50.68399 66.61020 39271 ft 499 kts 147°
2026-04-28 06:33 50.62724 66.67449 39257 ft 499 kts 147°
2026-04-28 06:34 50.57077 66.73825 39263 ft 499 kts 147°
2026-04-28 06:34 50.51427 66.80184 39262 ft 500 kts 147°
2026-04-28 06:35 50.45811 66.86488 39260 ft 499 kts 148°
2026-04-28 06:35 50.40161 66.92813 39249 ft 499 kts 147°
2026-04-28 06:36 50.34332 66.98821 39252 ft 496 kts 155°
2026-04-28 06:36 50.28015 67.03000 39260 ft 491 kts 166°
2026-04-28 06:37 50.21377 67.05299 39248 ft 488 kts 173°
2026-04-28 06:37 50.14699 67.07272 39255 ft 489 kts 173°
2026-04-28 06:38 50.08057 67.09256 39261 ft 489 kts 173°
2026-04-28 06:38 50.02450 67.10926 39254 ft 490 kts 173°
2026-04-28 06:39 49.94674 67.13234 39241 ft 489 kts 173°
2026-04-28 06:39 49.87994 67.15206 39253 ft 488 kts 173°
2026-04-28 06:40 49.82400 67.16851 39254 ft 488 kts 173°
2026-04-28 06:40 49.75725 67.18813 39237 ft 488 kts 173°
2026-04-28 06:41 49.69051 67.20772 39241 ft 488 kts 173°
2026-04-28 06:41 49.62387 67.22721 39235 ft 487 kts 173°
2026-04-28 06:42 49.55768 67.24650 39234 ft 487 kts 173°
2026-04-28 06:42 49.49096 67.26588 39230 ft 488 kts 173°
2026-04-28 06:43 49.42427 67.28522 39226 ft 488 kts 173°
2026-04-28 06:43 49.35749 67.30446 39224 ft 488 kts 173°
2026-04-28 06:44 49.29074 67.32373 39223 ft 488 kts 173°
2026-04-28 06:44 49.22397 67.34300 39222 ft 488 kts 173°
2026-04-28 06:45 49.15718 67.36211 39232 ft 489 kts 173°
2026-04-28 06:45 49.09027 67.38127 39231 ft 489 kts 173°
2026-04-28 06:46 49.02336 67.40038 39227 ft 489 kts 173°
2026-04-28 06:46 48.95649 67.41936 39229 ft 489 kts 173°
2026-04-28 06:47 48.88960 67.43836 39230 ft 489 kts 173°
2026-04-28 06:47 48.82277 67.45727 39223 ft 489 kts 173°
2026-04-28 06:48 48.75587 67.47612 39225 ft 489 kts 173°
2026-04-28 06:48 48.68906 67.49492 39223 ft 488 kts 173°
2026-04-28 06:49 48.62220 67.51367 39215 ft 488 kts 173°
2026-04-28 06:49 48.55537 67.53230 39216 ft 488 kts 173°
2026-04-28 06:50 48.48864 67.55095 39215 ft 487 kts 173°
2026-04-28 06:50 48.42192 67.56955 39194 ft 487 kts 173°
2026-04-28 06:51 48.35528 67.58806 39197 ft 487 kts 173°
2026-04-28 06:51 48.28860 67.60653 39199 ft 487 kts 173°
2026-04-28 06:52 48.22191 67.62493 39199 ft 488 kts 173°
2026-04-28 06:52 48.15515 67.64330 39200 ft 488 kts 173°
2026-04-28 06:53 48.08835 67.66164 39200 ft 488 kts 173°
2026-04-28 06:53 48.02150 67.67996 39198 ft 489 kts 173°
2026-04-28 06:54 47.95469 67.69821 39193 ft 488 kts 173°
2026-04-28 06:54 47.88779 67.71642 39192 ft 489 kts 173°
2026-04-28 06:55 47.82088 67.73455 39191 ft 489 kts 173°
2026-04-28 06:55 47.75437 67.75264 39208 ft 489 kts 173°
2026-04-28 06:56 47.68694 67.76861 39211 ft 487 kts 176°
2026-04-28 06:56 47.62021 67.78191 39210 ft 488 kts 176°
2026-04-28 06:57 47.55293 67.79541 39197 ft 488 kts 176°
2026-04-28 06:57 47.48580 67.80884 39192 ft 487 kts 176°
2026-04-28 06:58 47.41858 67.82224 39178 ft 487 kts 175°
2026-04-28 06:58 47.35141 67.83564 39163 ft 487 kts 175°
2026-04-28 06:59 47.28423 67.84894 39163 ft 487 kts 175°
2026-04-28 06:59 47.21709 67.86223 39164 ft 487 kts 175°
2026-04-28 07:00 47.14980 67.87554 39155 ft 487 kts 175°
2026-04-28 07:00 47.08257 67.88875 39159 ft 488 kts 175°
2026-04-28 07:01 47.01523 67.90198 39162 ft 488 kts 175°
2026-04-28 07:01 46.94781 67.91520 39163 ft 489 kts 175°
2026-04-28 07:02 46.88036 67.92836 39160 ft 489 kts 175°
2026-04-28 07:02 46.81290 67.94155 39156 ft 489 kts 175°
2026-04-28 07:03 46.74556 67.95460 39147 ft 488 kts 175°
2026-04-28 07:03 46.67828 67.96766 39133 ft 488 kts 175°
2026-04-28 07:04 46.61099 67.98061 39126 ft 487 kts 175°
2026-04-28 07:04 46.54373 67.99362 39128 ft 488 kts 175°
2026-04-28 07:05 46.47646 68.00659 39131 ft 488 kts 175°
2026-04-28 07:05 46.40949 68.01947 39139 ft 489 kts 175°
2026-04-28 07:06 46.34200 68.03237 39138 ft 489 kts 175°
2026-04-28 07:06 46.27461 68.04525 39122 ft 489 kts 175°
2026-04-28 07:07 46.20718 68.05813 39130 ft 488 kts 175°
2026-04-28 07:07 46.13985 68.07091 39129 ft 488 kts 175°
2026-04-28 07:08 46.07246 68.08371 39113 ft 488 kts 175°
2026-04-28 07:08 46.00516 68.09644 39120 ft 487 kts 175°
2026-04-28 07:09 45.93786 68.10913 39112 ft 487 kts 175°
2026-04-28 07:09 45.87064 68.12180 39093 ft 487 kts 175°
2026-04-28 07:10 45.80350 68.13442 39108 ft 487 kts 175°
2026-04-28 07:10 45.73636 68.14697 39101 ft 487 kts 175°
2026-04-28 07:11 45.66917 68.15953 39087 ft 487 kts 175°
2026-04-28 07:11 45.60204 68.17205 39103 ft 486 kts 175°
2026-04-28 07:12 45.53497 68.18452 39100 ft 486 kts 175°
2026-04-28 07:12 45.46785 68.19695 39089 ft 486 kts 175°
2026-04-28 07:13 45.40122 68.20927 39087 ft 486 kts 175°
2026-04-28 07:13 45.33427 68.22162 39083 ft 486 kts 175°
2026-04-28 07:14 45.26717 68.23398 39068 ft 486 kts 175°
2026-04-28 07:14 45.20013 68.24630 39082 ft 485 kts 175°
2026-04-28 07:15 45.13315 68.25861 39072 ft 485 kts 175°
2026-04-28 07:15 45.06617 68.27087 39069 ft 485 kts 175°
2026-04-28 07:16 44.99917 68.28315 39073 ft 485 kts 175°
2026-04-28 07:16 44.93220 68.29533 39067 ft 485 kts 175°
2026-04-28 07:17 44.86523 68.30745 39058 ft 485 kts 175°
2026-04-28 07:17 44.79831 68.31957 39060 ft 485 kts 175°
2026-04-28 07:18 44.73173 68.33160 39059 ft 485 kts 175°
2026-04-28 07:18 44.66423 68.34378 39044 ft 486 kts 175°
2026-04-28 07:19 44.59767 68.35578 39054 ft 486 kts 175°
2026-04-28 07:19 44.53058 68.36781 39055 ft 486 kts 175°
2026-04-28 07:20 44.46340 68.37983 39049 ft 486 kts 175°
2026-04-28 07:20 44.39626 68.39183 39054 ft 487 kts 175°
2026-04-28 07:21 44.32908 68.40379 39055 ft 486 kts 175°
2026-04-28 07:21 44.26190 68.41574 39048 ft 486 kts 175°
2026-04-28 07:22 44.16116 68.43370 39047 ft 486 kts 175°
2026-04-28 07:22 44.09403 68.44551 39039 ft 486 kts 175°
2026-04-28 07:23 44.03821 68.45535 39032 ft 486 kts 175°
2026-04-28 07:23 43.97111 68.46716 39032 ft 486 kts 176°
2026-04-28 07:24 43.89303 68.48086 39021 ft 486 kts 176°
2026-04-28 07:24 43.83678 68.49072 39009 ft 486 kts 175°
2026-04-28 07:25 43.76969 68.50247 38999 ft 486 kts 176°
2026-04-28 07:25 43.70254 68.51418 38986 ft 486 kts 175°
2026-04-28 07:26 43.63588 68.52579 38999 ft 486 kts 176°
2026-04-28 07:26 43.56879 68.53744 38974 ft 486 kts 176°
2026-04-28 07:27 43.50159 68.54908 38969 ft 486 kts 176°
2026-04-28 07:27 43.43439 68.56073 38971 ft 486 kts 176°
2026-04-28 07:28 43.36727 68.57230 38978 ft 486 kts 176°
2026-04-28 07:28 43.30045 68.58738 38969 ft 489 kts 169°
2026-04-28 07:29 43.23447 68.60994 38973 ft 489 kts 169°
2026-04-28 07:29 43.16842 68.63230 38963 ft 489 kts 169°
2026-04-28 07:30 43.10232 68.65442 38956 ft 489 kts 169°
2026-04-28 07:30 43.03626 68.67645 38951 ft 488 kts 169°
2026-04-28 07:31 42.97027 68.69842 38925 ft 488 kts 169°
2026-04-28 07:31 42.90469 68.72020 38934 ft 488 kts 169°
2026-04-28 07:32 42.83869 68.74208 38927 ft 488 kts 169°
2026-04-28 07:32 42.77278 68.76392 38921 ft 487 kts 169°
2026-04-28 07:33 42.70696 68.78568 38914 ft 486 kts 169°
2026-04-28 07:33 42.64118 68.80733 38917 ft 486 kts 169°
2026-04-28 07:34 42.57543 68.82891 38915 ft 486 kts 169°
2026-04-28 07:34 42.50961 68.85051 38917 ft 487 kts 169°
2026-04-28 07:35 42.44373 68.87210 38917 ft 487 kts 169°
2026-04-28 07:35 42.37790 68.89358 38926 ft 486 kts 170°
2026-04-28 07:36 42.31214 68.91502 38920 ft 486 kts 170°
2026-04-28 07:36 42.24628 68.93635 38911 ft 486 kts 171°
2026-04-28 07:37 42.18461 68.93948 38605 ft 474 kts 193°
2026-04-28 07:37 42.15273 68.92924 37629 ft 470 kts 203°
2026-04-28 07:37 42.12296 68.91132 36285 ft 470 kts 210°
2026-04-28 07:38 42.09394 68.89050 34912 ft 474 kts 210°
2026-04-28 07:38 42.06520 68.86975 33617 ft 475 kts 209°
2026-04-28 07:38 42.03586 68.84900 32137 ft 478 kts 208°
2026-04-28 07:38 42.00632 68.82859 30986 ft 474 kts 207°
2026-04-28 07:39 41.97712 68.80858 29936 ft 470 kts 207°
2026-04-28 07:39 41.94816 68.78887 28798 ft 464 kts 207°
2026-04-28 07:39 41.91951 68.76944 27788 ft 457 kts 207°
2026-04-28 07:39 41.89129 68.75034 26784 ft 451 kts 207°
2026-04-28 07:40 41.86342 68.73148 25805 ft 445 kts 207°
2026-04-28 07:40 41.83595 68.71290 24903 ft 439 kts 206°
2026-04-28 07:40 41.80911 68.69477 24343 ft 425 kts 206°
2026-04-28 07:40 41.78316 68.67726 23893 ft 411 kts 206°
2026-04-28 07:41 41.75786 68.66018 23244 ft 407 kts 206°
2026-04-28 07:41 41.73250 68.64309 22462 ft 408 kts 206°
2026-04-28 07:41 41.70736 68.62616 22019 ft 399 kts 206°
2026-04-28 07:41 41.68271 68.60958 21611 ft 395 kts 206°
2026-04-28 07:42 41.65831 68.59416 21060 ft 392 kts 199°
2026-04-28 07:42 41.63186 68.58681 20536 ft 387 kts 182°
2026-04-28 07:42 41.60537 68.59015 19981 ft 383 kts 165°
2026-04-28 07:42 41.58099 68.60370 19457 ft 379 kts 148°
2026-04-28 07:43 41.55924 68.62334 18926 ft 376 kts 146°
2026-04-28 07:43 41.53763 68.64279 18379 ft 374 kts 146°
2026-04-28 07:43 41.51605 68.66193 17815 ft 371 kts 146°
2026-04-28 07:43 41.49465 68.68081 17281 ft 366 kts 146°
2026-04-28 07:44 41.47354 68.69941 16765 ft 363 kts 146°
2026-04-28 07:44 41.45253 68.71791 16238 ft 359 kts 146°
2026-04-28 07:44 41.43177 68.73620 15723 ft 356 kts 146°
2026-04-28 07:44 41.41146 68.75409 15218 ft 353 kts 146°
2026-04-28 07:45 41.39106 68.77206 14716 ft 350 kts 146°
2026-04-28 07:45 41.37090 68.78981 14278 ft 345 kts 146°
2026-04-28 07:45 41.35092 68.80735 13783 ft 343 kts 146°
2026-04-28 07:45 41.33109 68.82477 13266 ft 340 kts 146°
2026-04-28 07:46 41.31143 68.84204 12761 ft 336 kts 146°
2026-04-28 07:46 41.29256 68.85996 12300 ft 332 kts 140°
2026-04-28 07:46 41.27596 68.88110 11828 ft 328 kts 131°
2026-04-28 07:46 41.26144 68.90435 11351 ft 325 kts 129°
2026-04-28 07:47 41.24703 68.92732 10900 ft 323 kts 129°
2026-04-28 07:47 41.23260 68.95002 10430 ft 320 kts 129°
2026-04-28 07:47 41.21844 68.97219 10186 ft 306 kts 129°
2026-04-28 07:47 41.20505 68.99314 9996 ft 291 kts 129°
2026-04-28 07:48 41.19197 69.01365 9889 ft 291 kts 129°
2026-04-28 07:48 41.17891 69.03416 9761 ft 291 kts 129°
2026-04-28 07:48 41.16591 69.05460 9639 ft 289 kts 129°
2026-04-28 07:48 41.15287 69.07504 9324 ft 292 kts 129°
2026-04-28 07:49 41.14128 69.09666 9011 ft 285 kts 113°
2026-04-28 07:49 41.13730 69.12186 8719 ft 278 kts 88°
2026-04-28 07:49 41.14002 69.14696 8426 ft 273 kts 80°
2026-04-28 07:49 41.14303 69.17161 8129 ft 269 kts 81°
2026-04-28 07:50 41.14583 69.19593 7893 ft 264 kts 81°
2026-04-28 07:50 41.14849 69.21952 7754 ft 253 kts 81°
2026-04-28 07:50 41.15100 69.24187 7594 ft 237 kts 81°
2026-04-28 07:50 41.15336 69.26299 7411 ft 227 kts 81°
2026-04-28 07:51 41.15563 69.28331 7234 ft 220 kts 81°
2026-04-28 07:51 41.15794 69.30324 7032 ft 218 kts 81°
2026-04-28 07:51 41.16018 69.32319 6803 ft 219 kts 81°
2026-04-28 07:51 41.16241 69.34321 6576 ft 220 kts 81°
2026-04-28 07:52 41.16462 69.36330 6408 ft 219 kts 81°
2026-04-28 07:52 41.16684 69.38319 6182 ft 218 kts 81°
2026-04-28 07:52 41.16904 69.40281 5959 ft 218 kts 81°
2026-04-28 07:52 41.17132 69.42296 5728 ft 219 kts 81°
2026-04-28 07:53 41.17349 69.44276 5491 ft 219 kts 82°
2026-04-28 07:53 41.17572 69.46267 5304 ft 217 kts 82°
2026-04-28 07:53 41.17796 69.48242 5030 ft 218 kts 82°
2026-04-28 07:53 41.18022 69.50238 4708 ft 218 kts 80°
2026-04-28 07:54 41.18616 69.52055 4382 ft 217 kts 45°
2026-04-28 07:54 41.19860 69.53093 4189 ft 211 kts 10°
2026-04-28 07:54 41.21299 69.53090 4038 ft 205 kts 350°
2026-04-28 07:54 41.22704 69.52758 3983 ft 204 kts 347°
2026-04-28 07:55 41.24109 69.52413 3994 ft 207 kts 348°
2026-04-28 07:55 41.25541 69.52099 3998 ft 208 kts 349°
2026-04-28 07:55 41.26916 69.51680 3985 ft 196 kts 329°
2026-04-28 07:55 41.27815 69.50473 3997 ft 179 kts 292°
2026-04-28 07:56 41.28070 69.48863 3998 ft 182 kts 270°
2026-04-28 07:56 41.27982 69.47210 3932 ft 174 kts 261°
2026-04-28 07:56 41.27774 69.45657 3709 ft 167 kts 261°
2026-04-28 07:56 41.27627 69.44212 3498 ft 148 kts 262°
2026-04-28 07:57 41.27476 69.42888 3307 ft 141 kts 262°
2026-04-28 07:57 41.27337 69.41596 3131 ft 139 kts 262°
2026-04-28 07:57 41.27191 69.40333 2951 ft 139 kts 262°
2026-04-28 07:57 41.27052 69.39061 2755 ft 138 kts 261°
2026-04-28 07:58 41.26914 69.37799 2582 ft 139 kts 261°
2026-04-28 07:58 41.26775 69.36547 2415 ft 136 kts 262°
2026-04-28 07:58 41.26638 69.35299 2246 ft 137 kts 261°
2026-04-28 07:58 41.26498 69.34049 2066 ft 137 kts 263°
2026-04-28 07:59 41.26362 69.32774 1902 ft 140 kts 263°
2026-04-28 07:59 41.26219 69.31503 1649 ft 139 kts 263°
2026-04-28 07:59 41.26075 69.30229 1442 ft 139 kts 263°
2026-04-28 07:59 41.25937 69.29055 1383 ft 108 kts 260°
2026-04-28 08:00 41.25865 69.28247 1384 ft 73 kts 261°
2026-04-28 08:00 41.25811 69.27761 1389 ft 29 kts 262°
2026-04-28 08:00 41.25828 69.27525 1383 ft 25 kts 307°
2026-04-28 08:00 41.25946 69.27374 1381 ft 23 kts 318°
2026-04-28 08:01 41.26029 69.27276 1383 ft 15 kts 318°
2026-04-28 08:01 41.26110 69.27180 1381 ft 16 kts 311°
2026-04-28 08:01 41.26108 69.27065 1383 ft 14 kts 246°
2026-04-28 08:01 41.26063 69.26948 1387 ft 15 kts 244°
2026-04-28 08:02 41.26081 69.26847 1382 ft 12 kts 329°
2026-04-28 08:02 41.26133 69.26800 1383 ft 0 kts 326°